Weather reports worldwide

Advertisment
Görlitz, Germany (10499): temperature & dewpoint: 06.11.2019 16:00:00 - 12.11.2019 16:00:00 (CET)Görlitz, Germany (10499): temperature 5cm & temperature -5cm: 06.11.2019 16:00:00 - 12.11.2019 16:00:00 (CET)Görlitz, Germany (10499): temperature -20cm & temperature -100cm: 06.11.2019 16:00:00 - 12.11.2019 16:00:00 (CET)Görlitz, Germany (10499): wind speed & gusts: 06.11.2019 16:00:00 - 12.11.2019 16:00:00 (CET)Görlitz, Germany (10499): wind direction: 06.11.2019 16:00:00 - 12.11.2019 16:00:00 (CET)Görlitz, Germany (10499): reduced air pressure: 06.11.2019 16:00:00 - 12.11.2019 16:00:00 (CET)Görlitz, Germany (10499): visibility: 06.11.2019 16:00:00 - 12.11.2019 16:00:00 (CET)Görlitz, Germany (10499): sunshine duration: 06.11.2019 16:00:00 - 12.11.2019 16:00:00 (CET)Görlitz, Germany (10499): precipitation: 06.11.2019 16:00:00 - 12.11.2019 16:00:00 (CET)
Date & Time tt [°C] td [°C] tt 5cm [°C] tt -5cm [°C] tt -20cm [°C] tt -100cm [°C] ff [km/h] ff [kn] fx [km/h] fx [kn] dd ppp [hPa] vv [km] sd [min] rr [mm]
12.11.2019 16:00:00 4,2 2,8 3,8 5,5 6,3 10,7 9 5 21 11 S 1009,1 12 0 0,1
12.11.2019 15:00:00 4,3 2,7 3,9 5,6 6,3 10,8 16 9 24 13 SSW 1009,3 13 0 0,1
12.11.2019 14:00:00 4,2 2,4 4,1 5,6 6,2 10,8 19 11 29 16 SSW 1009,1 17 0 0,0
12.11.2019 13:00:00 4,0 2,2 4,4 5,6 6,1 10,8 16 8 23 12 S 1008,9 20 0 0,0
12.11.2019 12:00:00 3,8 2,0 4,3 5,3 6,1 10,8 12 7 28 15 S 1009,8 21 0 0,1
12.11.2019 11:00:00 3,8 2,1 4,0 5,0 6,0 10,8 16 9 34 18 SSW 1010,3 21 0 0,0
12.11.2019 10:00:00 3,2 1,9 3,0 4,8 6,0 10,8 23 12 30 16 S 1010,1 18 0 0,2
12.11.2019 09:00:00 3,2 2,0 2,9 4,8 6,0 10,8 15 8 32 17 S 1009,9 13 0 0,5
12.11.2019 08:00:00 3,5 2,2 3,1 4,9 6,0 10,9 22 12 41 22 S 1009,8 8 0 0,7
12.11.2019 07:00:00 4,5 2,9 4,0 4,9 6,0 10,9 17 9 34 19 SSW 1009,3 10 0 0,0
12.11.2019 06:00:00 5,2 2,6 4,7 4,8 5,9 10,9 26 14 40 22 SSW 1008,0 15 0 0,0
12.11.2019 05:00:00 5,6 2,7 4,8 4,9 5,9 10,9 25 14 43 23 SSW 1007,7 16 0 0,0
12.11.2019 04:00:00 6,2 3,8 5,4 4,9 5,8 10,9 22 12 42 23 S 1007,8 17 0 0,0
12.11.2019 03:00:00 6,7 4,2 5,8 4,8 5,7 10,9 22 12 35 19 SSW 1007,7 19 0 0,0
12.11.2019 02:00:00 7,2 4,3 6,5 4,4 5,7 10,9 23 13 35 19 S 1007,4 19 0 0,0
12.11.2019 01:00:00 6,8 3,7 6,1 4,0 5,7 11,0 20 11 31 17 SSW 1007,6 20 0 0,0
12.11.2019 00:00:00 6,2 3,1 5,2 3,5 5,8 11,0 9 5 18 10 S 1007,8 20 0 0,0
11.11.2019 23:00:00 3,9 1,3 1,9 3,3 5,9 11,0 4 2 17 9 E 1008,2 16 0 0,0
11.11.2019 22:00:00 2,6 0,5 0,7 3,4 6,1 11,0 13 7 17 9 SSE 1008,9 15 0 0,0
11.11.2019 21:00:00 2,5 0,0 0,0 3,6 6,2 11,0 8 4 27 15 SE 1009,3 15 0 0,0
11.11.2019 20:00:00 2,7 0,6 -0,4 3,9 6,4 11,0 6 3 12 6 S 1009,8 5 0 0,0
11.11.2019 19:00:00 2,7 0,3 -0,7 4,4 6,5 11,0 5 3 9 5 SSE 1010,2 15 0 0,0
11.11.2019 18:00:00 2,1 0,4 -0,8 5,0 6,6 11,0 9 5 18 10 SE 1011,1 13 0 0,0
11.11.2019 17:00:00 3,4 0,5 1,5 5,7 6,6 11,1 5 3 31 17 ESE 1011,3 19 7 0,0
11.11.2019 16:00:00 3,2 0,6 2,7 6,5 6,5 11,1 19 10 30 16 SSW 1011,7 18 60 0,0
11.11.2019 15:00:00 5,9 1,0 6,4 6,9 6,2 11,1 10 5 21 12 S 1011,9 37 60 0,0
11.11.2019 14:00:00 5,7 1,1 7,2 6,6 5,9 11,1 15 8 31 17 S 1012,3 28 60 0,0
11.11.2019 13:00:00 5,3 1,2 7,6 5,9 5,7 11,1 14 8 28 15 S 1013,2 28 60 0,0
11.11.2019 12:00:00 4,8 1,2 6,8 4,7 5,6 11,1 21 11 28 15 SSW 1014,2 27 60 0,0
11.11.2019 11:00:00 3,6 0,4 4,5 3,5 5,6 11,1 19 11 27 14 S 1015,1 30 60 0,0
11.11.2019 10:00:00 1,5 -0,7 2,4 2,9 5,7 11,1 19 10 31 17 SSW 1016,2 27 60 0,0
11.11.2019 09:00:00 0,5 -1,1 0,5 2,9 5,9 11,1 24 13 31 17 SSW 1016,9 24 60 0,0
11.11.2019 08:00:00 -0,6 -2,1 -1,0 3,0 6,0 11,2 4 2 18 10 WSW 1017,2 20 18 0,0
11.11.2019 07:00:00 -0,9 -2,0 -2,9 3,1 6,1 11,1 4 2 14 8 SW 1017,0 18 0 0,0
11.11.2019 06:00:00 -1,4 -2,0 -3,7 3,2 6,3 11,2 5 3 14 7 S 1016,9 16 0 0,0
11.11.2019 05:00:00 -1,3 -2,3 -3,0 3,3 6,4 11,2 10 5 14 7 S 1016,9 20 0 0,0
11.11.2019 04:00:00 -1,0 -1,8 -2,8 3,5 6,6 11,2 4 2 11 6 S 1016,9 16 0 0,0
11.11.2019 03:00:00 -0,6 -1,9 -2,2 3,7 6,8 11,2 10 5 13 7 S 1017,0 23 0 0,0
11.11.2019 02:00:00 -1,0 -2,1 -2,8 3,9 7,0 11,2 10 5 12 6 S 1017,3 20 0 0,0
11.11.2019 01:00:00 -0,1 -1,0 -2,2 4,3 7,2 11,2 6 4 9 5 S 1017,3 17 0 0,0
11.11.2019 00:00:00 0,6 -0,3 -1,6 4,7 7,4 11,2 6 3 9 5 SSW 1017,4 17 0 0,0
10.11.2019 23:00:00 0,7 0,2 -1,7 5,2 7,5 11,2 4 2 8 4 SW 1017,2 12 0 0,0
10.11.2019 22:00:00 1,5 1,0 -0,2 5,6 7,7 11,2 7 4 10 5 SE 1016,9 9 0 0,0
10.11.2019 21:00:00 2,0 0,2 1,3 5,9 7,8 11,2 9 5 10 6 SSW 1016,7 27 0 0,0
10.11.2019 20:00:00 2,3 0,7 1,9 6,1 7,9 11,2 8 5 10 5 WSW 1016,4 20 0 0,0
10.11.2019 19:00:00 2,9 0,9 0,8 6,5 8,1 11,3 7 4 9 5 WSW 1016,2 25 0 0,0
10.11.2019 18:00:00 4,2 1,2 1,4 7,1 8,1 11,3 4 2 6 3 W 1015,9 35 0 0,0
10.11.2019 17:00:00 5,5 1,4 2,1 7,8 8,1 11,3 3 2 8 5 NNW 1015,2 48 10 0,0
10.11.2019 16:00:00 7,3 1,1 7,0 8,3 8,0 11,3 4 2 5 3 NNE 1014,6 66 43 0,0
10.11.2019 15:00:00 7,1 0,8 6,3 8,8 7,7 11,3 3 2 9 5 ENE 1014,3 54 3 0,0
10.11.2019 14:00:00 7,0 1,9 7,2 9,1 7,4 11,3 8 5 13 7 NE 1014,0 14 48 0,0
10.11.2019 13:00:00 8,1 0,9 10,6 8,3 7,1 11,3 3 1 8 4 NE 1013,8 37 51 0,0
10.11.2019 12:00:00 7,4 1,4 10,0 7,2 6,9 11,3 5 3 8 4 NNE 1013,7 36 60 0,0
10.11.2019 11:00:00 7,0 2,0 8,3 5,8 6,8 11,3 3 2 7 4 SSW 1014,1 29 60 0,0
10.11.2019 10:00:00 3,7 0,7 5,7 4,7 6,8 11,3 3 2 6 4 SSW 1014,1 16 60 0,0
10.11.2019 09:00:00 1,2 0,7 2,1 4,0 7,0 11,3 5 3 9 5 SSE 1014,2 0,4 38 0,0
10.11.2019 08:00:00 0,6 0,5 -0,6 4,0 7,2 11,3 6 4 9 5 SSE 1013,8 0,2 0 0,0
10.11.2019 07:00:00 0,6 0,5 -1,7 4,4 7,4 11,3 8 5 13 7 S 1013,2 2,3 0 0,0
10.11.2019 06:00:00 1,1 1,0 -0,9 4,8 7,6 11,3 6 3 12 6 SW 1012,8 6 0 0,0
10.11.2019 05:00:00 1,5 0,9 0,3 5,2 7,7 11,3 9 5 12 6 W 1012,9 8 0 0,0
10.11.2019 04:00:00 2,7 2,1 0,4 5,5 7,9 11,3 5 3 9 5 S 1012,6 13 0 0,0
10.11.2019 03:00:00 2,9 2,1 0,2 6,0 8,0 11,3 5 3 9 5 S 1012,2 16 0 0,0
10.11.2019 02:00:00 3,7 2,5 1,7 6,4 8,1 11,4 7 4 10 5 S 1011,8 26 0 0,0
10.11.2019 01:00:00 4,4 2,9 4,0 6,6 8,2 11,4 7 4 13 7 SW 1011,5 27 0 0,0
10.11.2019 00:00:00 4,4 3,0 3,9 6,7 8,3 11,4 7 4 13 7 SW 1011,5 27 0 0,0
09.11.2019 23:00:00 4,5 3,1 3,8 6,9 8,4 11,4 11 6 14 8 SSW 1011,4 26 0 0,0
09.11.2019 22:00:00 5,0 3,6 4,6 7,1 8,4 11,4 12 7 15 8 SSW 1011,4 27 0 0,0
09.11.2019 21:00:00 5,2 3,7 5,0 7,2 8,5 11,4 10 5 16 8 SW 1011,3 35 0 0,0
09.11.2019 20:00:00 5,2 3,5 5,0 7,3 8,6 11,4 10 6 20 11 WSW 1010,9 54 0 0,0
09.11.2019 19:00:00 5,3 3,7 5,2 7,5 8,6 11,4 11 6 23 13 WSW 1010,5 42 0 0,0
09.11.2019 18:00:00 5,7 4,3 5,5 7,6 8,7 11,4 16 9 26 14 WSW 1010,1 25 0 0,0
09.11.2019 17:00:00 5,8 4,8 5,5 7,8 8,7 11,4 11 6 28 15 WSW 1009,6 9 0 0,3
09.11.2019 16:00:00 6,0 5,0 5,9 8,0 8,7 11,4 11 6 31 17 W 1008,9 12 0 0,1
09.11.2019 15:00:00 6,4 5,0 6,1 8,2 8,7 11,4 14 8 28 15 W 1008,2 15 0 0,2
09.11.2019 14:00:00 6,8 5,2 6,7 8,3 8,6 11,4 14 7 27 14 W 1007,4 28 0 0,1
09.11.2019 13:00:00 7,5 6,2 7,5 8,1 8,6 11,4 11 6 22 12 W 1006,7 10 0 0,6
09.11.2019 12:00:00 7,1 6,2 7,0 8,0 8,6 11,4 10 6 17 9 WSW 1006,8 6 0 1,8
09.11.2019 11:00:00 7,1 6,2 7,0 8,0 8,6 11,4 10 6 19 11 W 1006,9 7 0 0,1
09.11.2019 10:00:00 7,1 6,1 7,1 7,9 8,6 11,4 8 4 15 8 W 1006,6 7 0 0,0
09.11.2019 09:00:00 6,9 6,3 7,0 7,8 8,6 11,4 5 3 10 6 WSW 1006,4 3,5 0 0,1
09.11.2019 08:00:00 6,9 6,2 6,7 7,8 8,6 11,4 6 3 12 6 W 1006,3 4,2 0 0,1
09.11.2019 07:00:00 6,9 6,1 6,7 7,8 8,6 11,4 6 3 10 5 NW 1005,7 4,8 0 0,0
09.11.2019 06:00:00 7,1 6,5 6,9 7,9 8,6 11,4 6 3 16 8 W 1005,8 5 0 0,1
09.11.2019 05:00:00 7,3 6,4 7,2 7,8 8,6 11,4 9 5 13 7 W 1005,3 6 0 0,0
09.11.2019 04:00:00 7,5 6,5 7,1 7,8 8,6 11,4 9 5 15 8 WNW 1004,6 7 0 0,0
09.11.2019 03:00:00 7,6 7,0 7,3 7,7 8,6 11,5 6 3 9 5 NNW 1004,7 3,8 0 0,5
09.11.2019 02:00:00 8,1 7,1 7,2 7,7 8,6 11,4 0 0 8 5 N 1004,6 6 0 0,4
09.11.2019 01:00:00 7,0 6,3 6,7 7,6 8,6 11,5 3 1 5 3 ESE 1004,6 4,7 0 0,4
09.11.2019 00:00:00 6,6 6,0 6,2 7,6 8,7 11,5 0 0 5 3 N 1004,7 6 0 0,0
08.11.2019 23:00:00 6,9 6,2 5,8 7,7 8,8 11,5 5 3 6 3 N 1004,4 5 0 0,0
08.11.2019 22:00:00 7,3 6,3 5,0 8,0 8,8 11,5 1 1 8 4 W 1004,6 6 0 0,0
08.11.2019 21:00:00 7,8 6,3 7,2 8,1 8,8 11,5 5 3 8 4 ESE 1004,3 9 0 0,0
08.11.2019 20:00:00 8,1 6,3 7,8 8,2 8,8 11,5 6 4 9 5 E 1004,5 10 0 0,0
08.11.2019 19:00:00 7,8 6,3 7,4 8,3 8,8 11,5 8 4 10 5 ENE 1004,6 10 0 0,0
08.11.2019 18:00:00 8,4 6,1 7,7 8,5 8,8 11,5 6 4 14 8 E 1004,6 13 0 0,0
08.11.2019 17:00:00 8,4 6,1 8,1 8,7 8,7 11,5 10 5 17 9 NE 1004,5 16 0 0,0
08.11.2019 16:00:00 9,1 6,2 8,8 8,9 8,6 11,5 13 7 18 10 NE 1004,6 25 0 0,0
08.11.2019 15:00:00 9,6 6,4 9,5 9,1 8,5 11,5 12 6 17 9 NE 1005,0 21 0 0,0
08.11.2019 14:00:00 9,7 5,9 10,1 9,1 8,3 11,5 10 5 19 11 NNE 1005,4 27 0 0,0
08.11.2019 13:00:00 9,8 5,6 10,5 8,9 8,0 11,5 13 7 29 15 NE 1006,0 34 12 0,0
08.11.2019 12:00:00 9,7 5,1 11,2 8,5 7,8 11,6 16 9 25 14 NE 1006,9 35 27 0,0
08.11.2019 11:00:00 9,6 4,9 11,7 7,4 7,7 11,6 13 7 21 11 NE 1007,5 30 33 0,0
08.11.2019 10:00:00 8,2 4,7 9,5 6,3 7,7 11,6 6 4 11 6 ESE 1008,3 22 41 0,0
08.11.2019 09:00:00 6,3 3,7 7,0 5,5 7,8 11,6 3 2 8 4 S 1008,4 9 54 0,0
08.11.2019 08:00:00 3,6 3,2 1,8 5,5 7,9 11,6 7 4 8 5 SE 1008,7 3,5 1 0,0
08.11.2019 07:00:00 5,1 4,4 1,8 5,8 8,0 11,6 7 4 11 6 WSW 1008,3 12 0 0,0
08.11.2019 06:00:00 5,1 3,6 1,4 6,1 8,1 11,6 4 2 12 6 S 1008,3 7 0 0,0
08.11.2019 05:00:00 6,6 4,5 4,8 6,3 8,2 11,6 10 6 16 9 SW 1008,3 20 0 0,0
08.11.2019 04:00:00 6,8 4,5 5,5 6,4 8,3 11,6 14 7 23 13 SW 1008,2 17 0 0,0
08.11.2019 03:00:00 7,6 4,7 5,7 6,4 8,4 11,6 15 8 28 15 SSW 1008,3 23 0 0,0
08.11.2019 02:00:00 7,5 4,7 5,6 6,5 8,5 11,6 17 9 24 13 SSW 1007,8 21 0 0,0
08.11.2019 01:00:00 6,1 3,9 3,3 6,8 8,6 11,6 8 4 20 11 SW 1007,8 17 0 0,0
08.11.2019 00:00:00 7,6 4,7 5,8 7,0 8,7 11,6 17 9 34 18 S 1007,5 22 0 0,0
07.11.2019 23:00:00 8,1 4,5 6,6 7,1 8,8 11,6 20 11 31 17 S 1006,8 28 0 0,0
07.11.2019 22:00:00 8,7 4,6 7,0 7,1 9,0 11,6 21 12 29 16 S 1006,6 36 0 0,0
07.11.2019 21:00:00 7,4 3,4 4,5 7,2 9,1 11,6 6 3 26 14 SSE 1006,5 32 0 0,0
07.11.2019 20:00:00 6,2 2,9 3,8 7,5 9,3 11,6 5 3 12 6 SE 1006,3 18 0 0,0
07.11.2019 19:00:00 6,5 3,2 4,8 8,0 9,5 11,6 10 5 11 6 ESE 1005,8 15 0 0,0
07.11.2019 18:00:00 7,3 3,4 4,4 8,6 9,5 11,6 6 4 16 9 SE 1005,9 41 0 0,0
07.11.2019 17:00:00 8,1 3,8 4,9 9,5 9,5 11,6 8 4 13 7 SSE 1005,4 50 10 0,0
07.11.2019 16:00:00 10,0 4,1 8,7 10,2 9,4 11,7 9 5 25 14 SSW 1005,0 66 60 0,0
07.11.2019 15:00:00 10,9 4,2 11,2 10,6 9,2 11,6 17 9 30 16 SSW 1004,5 69 59 0,0
07.11.2019 14:00:00 10,7 5,0 11,8 10,5 8,9 11,7 18 10 30 16 SSW 1004,4 41 59 0,0
07.11.2019 13:00:00 10,6 5,4 12,4 10,0 8,7 11,7 19 10 27 15 SW 1004,5 45 60 0,0
07.11.2019 12:00:00 10,0 5,2 11,4 9,1 8,5 11,7 18 10 35 19 S 1004,7 37 60 0,0
07.11.2019 11:00:00 9,4 5,3 11,0 8,2 8,3 11,7 20 11 33 18 S 1005,1 27 60 0,0
07.11.2019 10:00:00 8,8 5,6 10,2 7,4 8,3 11,7 21 12 30 16 S 1005,3 21 12 0,0
07.11.2019 09:00:00 7,5 5,0 7,6 6,8 8,3 11,7 19 10 29 16 SW 1005,3 17 0 0,0
07.11.2019 08:00:00 6,7 4,9 6,3 6,6 8,4 11,7 14 8 22 12 SSW 1005,2 13 0 0,0
07.11.2019 07:00:00 6,0 4,5 4,9 6,7 8,5 11,7 15 8 31 17 S 1005,0 13 0 0,0
07.11.2019 06:00:00 6,5 4,8 6,0 6,7 8,6 11,7 21 11 31 17 SSW 1004,8 15 0 0,0
07.11.2019 05:00:00 4,8 3,4 3,0 6,8 8,8 11,7 10 5 21 11 S 1005,1 16 0 0,0
07.11.2019 04:00:00 5,5 4,1 3,8 7,0 8,9 11,7 11 6 16 9 S 1005,2 23 0 0,0
07.11.2019 03:00:00 5,5 4,4 2,7 7,5 8,9 11,7 2 1 16 9 SSW 1005,1 17 0 0,0
07.11.2019 02:00:00 7,1 4,7 6,0 7,7 9,0 11,7 15 8 21 11 SSW 1004,8 25 0 0,0
07.11.2019 01:00:00 7,1 5,4 6,5 7,8 9,1 11,7 9 5 18 10 SSW 1004,9 29 0 0,0
07.11.2019 00:00:00 7,3 4,9 6,3 7,9 9,1 11,7 9 5 12 7 WSW 1004,8 31 0 0,0
06.11.2019 23:00:00 7,4 4,9 6,3 8,0 9,2 11,7 8 4 18 10 SW 1004,8 44 0 0,0
06.11.2019 22:00:00 7,4 5,6 6,5 8,1 9,2 11,7 11 6 15 8 SW 1004,8 24 0 0,1
06.11.2019 21:00:00 7,6 5,8 6,8 8,1 9,3 11,7 9 5 19 10 WSW 1004,6 15 0 0,0
06.11.2019 20:00:00 7,7 5,6 7,0 8,2 9,4 11,7 15 8 21 12 SSW 1004,1 27 0 0,0
06.11.2019 19:00:00 7,8 5,2 6,7 8,6 9,4 11,7 17 9 30 16 SW 1003,8 30 0 0,0
06.11.2019 18:00:00 8,9 5,5 8,2 8,8 9,4 11,7 18 10 32 17 SSW 1003,2 31 0 0,0
06.11.2019 17:00:00 9,1 5,5 8,4 9,1 9,4 11,7 16 9 24 13 S 1002,9 31 0 0,0
06.11.2019 16:00:00 9,0 5,3 8,0 9,4 9,4 11,7 16 9 21 11 SSW 1002,5 42 9 0,0

tt = temperature
td = dewpoint
tt 5cm = temperature 5cm
tt -5cm = temperature -5cm
tt -20cm = temperature -20cm
tt -100cm = temperature -100cm
ff = wind speed
fx = gusts
dd = wind direction
ppp = reduced air pressure
vv = visibility
sd = sunshine duration
rr = precipitation

Next stations